TimeAKST,TemperatureF,Dew PointF,Humidity,Sea Level PressureIn,VisibilityMPH,Wind Direction,Wind SpeedMPH,Gust SpeedMPH,PrecipitationIn,Events,Conditions,WindDirDegrees,DateUTC
12:53 AM,30.9,28.9,92,29.58,3.0,Calm,Calm,-,N/A,,Overcast,0,2013-01-04 09:53:00
1:53 AM,33.1,30.9,92,29.60,10.0,West,3.5,-,N/A,,Overcast,260,2013-01-04 10:53:00
3:42 AM,33.8,30.2,87,29.64,6.0,Calm,Calm,-,0.01,Rain,Light Freezing Rain,0,2013-01-04 12:42:00
3:53 AM,33.1,30.9,92,29.65,8.0,Calm,Calm,-,0.01,Rain,Light Freezing Rain,0,2013-01-04 12:53:00
4:01 AM,33.8,30.2,87,29.64,10.0,Calm,Calm,-,0.00,Rain,Light Freezing Rain,0,2013-01-04 13:01:00
4:13 AM,33.8,30.2,87,29.64,10.0,Calm,Calm,-,0.00,,Overcast,0,2013-01-04 13:13:00
4:47 AM,30.2,30.2,100,29.65,1.8,Calm,Calm,-,0.00,,Scattered Clouds,0,2013-01-04 13:47:00
4:53 AM,30.9,30.0,96,29.66,1.8,Calm,Calm,-,0.00,,Partly Cloudy,0,2013-01-04 13:53:00
5:09 AM,30.2,28.4,93,29.65,0.5,Calm,Calm,-,N/A,Fog,Light Freezing Fog,0,2013-01-04 14:09:00
5:40 AM,28.4,26.6,93,29.67,0.2,Calm,Calm,-,N/A,Fog,Light Freezing Fog,0,2013-01-04 14:40:00
5:53 AM,28.0,26.1,92,29.68,0.2,Calm,Calm,-,N/A,Fog,Light Freezing Fog,0,2013-01-04 14:53:00
6:53 AM,28.0,25.0,88,29.69,0.5,ENE,3.5,-,N/A,Fog,Light Freezing Fog,60,2013-01-04 15:53:00
7:06 AM,26.6,24.8,93,29.69,1.0,North,3.5,-,N/A,,Mist,10,2013-01-04 16:06:00
7:38 AM,26.6,24.8,93,29.70,3.0,NE,5.8,-,N/A,,Scattered Clouds,40,2013-01-04 16:38:00
7:53 AM,27.0,25.0,92,29.71,10.0,NE,5.8,-,N/A,,Mostly Cloudy,40,2013-01-04 16:53:00
8:53 AM,28.9,27.0,92,29.73,10.0,ENE,6.9,-,N/A,,Clear,70,2013-01-04 17:53:00
9:53 AM,30.0,27.0,88,29.76,10.0,NE,3.5,-,N/A,,Mostly Cloudy,40,2013-01-04 18:53:00
10:53 AM,30.0,27.0,88,29.78,10.0,ENE,4.6,-,N/A,,Mostly Cloudy,60,2013-01-04 19:53:00
11:53 AM,30.0,27.0,88,29.78,10.0,East,4.6,-,N/A,,Mostly Cloudy,80,2013-01-04 20:53:00
12:53 PM,32.0,30.0,92,29.79,10.0,East,8.1,-,N/A,,Overcast,100,2013-01-04 21:53:00
1:53 PM,30.0,28.0,92,29.80,10.0,Calm,Calm,-,N/A,,Mostly Cloudy,0,2013-01-04 22:53:00
2:53 PM,32.0,28.9,88,29.79,10.0,NNE,4.6,-,N/A,,Mostly Cloudy,30,2013-01-04 23:53:00
3:53 PM,32.0,28.0,85,29.78,10.0,Calm,Calm,-,N/A,,Mostly Cloudy,0,2013-01-05 00:53:00
4:53 PM,28.9,27.0,92,29.78,10.0,Calm,Calm,-,N/A,,Mostly Cloudy,0,2013-01-05 01:53:00
5:53 PM,28.0,26.1,92,29.76,10.0,Calm,Calm,-,N/A,,Scattered Clouds,0,2013-01-05 02:53:00
6:53 PM,27.0,25.0,92,29.75,10.0,North,3.5,-,N/A,,Clear,360,2013-01-05 03:53:00
7:53 PM,27.0,24.1,89,29.73,10.0,Calm,Calm,-,N/A,Fog,Patches of Fog,0,2013-01-05 04:53:00
8:53 PM,27.0,25.0,92,29.73,10.0,Calm,Calm,-,N/A,Fog,Patches of Fog,0,2013-01-05 05:53:00
9:53 PM,30.0,25.0,82,29.71,10.0,Calm,Calm,-,N/A,Fog,Patches of Fog,0,2013-01-05 06:53:00
10:53 PM,28.9,26.1,89,29.69,9.0,NE,3.5,-,N/A,Fog,Patches of Fog,40,2013-01-05 07:53:00
11:53 PM,28.9,27.0,92,29.67,10.0,Calm,Calm,-,N/A,Fog,Patches of Fog,0,2013-01-05 08:53:00